Wind_Speed
31 35 37 36 36 36 37 38 38 38 40 42 42 42 43 43 43 42 43 44 43 43 43 42 41 41 41 41 41 41 41 40 39 39 38 37 36 36 36 36 35 36 35 35
30 33 33 35 36 36 37 36 36 37 38 40 41 42 43 44 43 43 43 44 43 43 43 42 41 41 41 41 41 41 41 41 40 39 38 38 37 37 36 35 35 35 35 35
29 29 31 33 34 35 36 35 35 36 36 38 40 42 44 44 43 43 43 44 43 43 42 42 42 41 40 40 40 41 41 41 40 39 39 38 37 37 36 35 35 35 35 35
26 27 29 31 33 33 32 33 33 36 36 38 40 41 41 42 42 42 43 43 43 43 43 42 42 41 41 40 40 41 40 40 39 39 39 38 38 37 36 36 35 35 35 34
24 25 27 29 31 32 32 31 32 33 35 37 39 41 40 42 43 42 42 42 43 43 43 42 42 41 42 41 41 40 41 40 40 39 39 39 38 37 36 36 36 35 35 34
23 23 25 26 28 30 30 30 30 32 33 36 38 39 40 41 42 42 42 42 43 43 43 43 43 42 42 42 42 40 41 41 40 40 39 39 39 38 37 36 36 36 35 35
22 23 24 26 28 29 28 28 28 29 31 34 35 38 39 39 40 40 41 42 41 41 42 42 42 42 42 42 42 41 40 40 40 40 40 39 39 39 37 36 37 37 36 36
21 23 23 25 27 28 27 28 28 27 29 31 33 36 37 37 38 39 40 40 41 40 40 41 41 42 41 41 41 41 41 41 41 40 39 38 38 38 39 38 37 37 37 36
21 22 23 24 25 27 28 29 29 28 28 29 31 34 35 36 37 38 39 39 40 40 40 40 40 41 41 41 41 40 40 40 40 39 39 38 38 39 39 38 38 37 37 37
20 21 23 24 24 26 27 28 29 29 28 29 31 33 34 34 35 36 38 39 38 38 39 39 40 40 40 40 40 40 40 39 40 39 39 38 39 39 39 39 38 38 37 37
19 22 23 24 26 26 27 27 27 27 27 28 30 31 32 33 33 34 36 37 37 37 37 38 39 39 39 39 39 40 39 39 39 39 39 39 39 39 40 40 39 38 37 36
19 21 22 24 26 26 26 27 27 27 26 27 28 29 29 30 32 33 35 36 37 37 37 37 37 38 39 39 39 39 40 39 39 39 39 39 39 39 40 40 39 39 38 37
19 20 22 24 25 27 27 27 28 27 27 26 26 27 27 28 29 32 33 34 35 35 36 37 37 37 38 39 39 39 40 40 39 39 39 39 39 39 39 39 39 39 38 37
18 19 21 23 24 25 26 26 27 27 27 26 26 27 27 28 29 30 31 33 33 34 35 35 36 37 38 39 39 39 39 40 40 39 39 39 39 39 39 39 39 39 39 38
18 20 21 22 23 25 25 26 26 27 27 27 26 27 27 27 28 30 31 32 33 34 34 34 35 36 38 39 39 39 39 40 39 39 39 38 38 38 38 38 38 38 38 38
18 19 21 22 23 24 24 26 26 26 26 27 27 27 27 28 28 29 30 32 32 33 33 33 34 35 36 37 37 38 39 39 39 38 38 38 38 38 38 38 38 38 38 38
18 18 20 21 22 23 24 24 24 24 25 26 28 27 28 28 28 28 29 31 31 32 33 33 33 34 34 34 35 36 37 37 37 37 37 37 38 38 39 39 38 38 38 38
17 18 19 20 22 24 23 23 23 24 24 25 26 27 28 29 29 30 30 30 31 32 33 33 33 33 33 34 34 35 36 37 37 37 37 37 37 37 37 37 37 37 37 38
17 18 19 19 20 21 22 23 23 24 25 26 27 27 27 28 29 29 30 29 30 32 33 33 33 33 33 34 34 34 35 36 36 36 36 36 36 36 37 37 37 36 37 37
16 18 19 20 21 21 23 24 24 25 26 26 27 27 27 27 28 28 29 29 29 31 32 33 32 32 33 34 34 34 34 34 34 34 34 34 35 35 35 36 36 36 36 36
17 17 18 20 22 22 23 23 24 25 25 26 25 26 26 27 27 27 28 29 29 29 30 31 32 32 32 33 34 33 33 33 33 33 33 34 34 34 35 35 35 35 35 35
16 17 18 20 21 22 22 23 23 23 24 25 26 26 26 26 27 28 27 28 29 29 29 30 31 32 31 32 32 32 32 32 33 33 34 34 34 34 34 34 34 35 35 35
16 17 18 20 20 21 22 23 23 22 23 23 24 25 25 25 26 27 27 28 29 29 30 30 30 31 31 31 31 31 31 32 32 33 33 32 32 33 33 33 34 34 34 35
17 17 18 18 19 21 22 23 24 24 24 24 23 24 25 25 25 25 26 27 28 28 29 30 30 30 30 32 32 32 31 31 32 32 32 32 32 32 32 32 33 33 34 34
18 18 18 18 18 19 21 22 22 23 23 23 23 24 24 25 26 26 26 27 28 28 28 29 30 30 30 30 31 32 32 31 31 32 32 32 32 32 31 31 31 32 33 33
19 19 19 18 17 18 18 19 20 21 22 22 23 23 23 24 24 24 25 26 26 27 28 28 29 29 29 29 30 30 30 31 31 32 32 32 31 31 31 31 31 32 32 33
Wind_Direction
234 231 229 229 232 235 237 238 239 238 237 237 236 235 234 233 234 235 236 235 235 234 233 234 234 235 235 235 236 237 239 242 243 244 246 247 249 251 253 255 257 260 262 264
233 232 232 231 231 233 235 237 238 237 236 236 235 233 233 232 234 235 235 235 234 233 233 233 234 235 236 237 237 238 240 242 243 244 246 248 249 250 252 254 256 258 260 263
234 233 231 231 231 232 233 236 237 238 237 236 235 234 233 232 233 232 233 234 234 234 233 233 233 234 235 237 237 239 240 241 243 245 246 248 249 250 253 253 255 257 260 262
234 231 232 231 230 231 233 235 237 238 237 235 234 235 232 232 232 231 233 234 234 233 234 234 234 235 236 237 238 239 239 241 243 245 246 247 248 250 252 253 255 257 259 261
233 231 233 232 230 232 234 234 236 237 237 236 234 235 232 232 233 233 233 234 234 234 234 235 236 236 236 236 237 239 240 241 243 245 246 248 248 250 252 253 254 256 258 261
235 234 235 234 232 233 234 235 238 238 237 236 234 236 235 234 234 234 234 235 235 234 235 235 236 236 237 237 237 239 240 241 243 245 246 248 248 249 252 253 254 256 258 260
237 236 236 235 233 231 232 233 235 235 236 238 236 238 237 236 235 234 234 235 235 235 236 236 236 237 238 238 238 239 241 241 243 244 245 246 247 249 251 253 254 256 258 260
239 235 233 233 234 232 231 231 231 235 238 240 237 237 237 237 236 234 234 235 236 236 236 237 236 236 237 237 238 239 240 241 243 244 244 245 247 249 250 253 254 256 259 261
242 239 235 235 235 231 230 230 232 236 239 241 237 236 237 237 237 237 236 237 237 236 236 236 235 236 236 236 237 238 240 241 242 243 244 245 247 248 251 252 254 257 259 260
246 242 239 237 234 232 232 233 233 234 238 242 241 239 239 239 238 238 238 238 238 238 237 236 235 236 237 237 237 237 239 240 242 243 244 245 246 248 250 252 255 257 258 260
246 245 241 238 236 235 231 232 233 235 239 241 244 244 242 242 241 239 239 239 239 239 239 238 238 237 237 237 237 237 238 240 242 243 244 245 247 249 251 253 255 256 258 260
248 246 244 241 237 235 234 233 233 235 241 242 244 245 246 247 245 242 240 240 240 239 238 238 238 238 238 238 238 238 239 240 242 244 244 246 247 249 251 253 255 256 258 260
249 248 246 243 239 236 236 234 235 237 240 242 243 245 246 247 246 243 241 240 240 239 238 238 238 238 238 239 240 240 240 241 243 244 245 246 248 249 251 253 254 256 257 260
251 247 245 244 241 239 238 237 237 237 238 241 243 245 246 246 246 243 241 241 240 239 238 238 238 239 238 239 240 241 242 242 243 244 245 247 247 248 250 251 252 254 257 259
255 252 248 245 242 241 240 238 239 238 238 242 244 246 246 246 244 242 242 242 242 241 239 238 238 239 240 239 240 241 242 243 243 244 245 247 247 248 250 251 253 256 258 259
257 252 249 247 243 242 239 240 242 241 241 243 244 244 244 244 244 242 242 243 242 241 239 238 238 240 241 241 241 241 241 243 243 244 245 246 247 248 249 251 254 256 258 260
256 253 251 250 246 242 239 241 243 243 243 244 246 245 244 245 245 243 243 243 243 240 239 239 239 240 241 240 240 240 240 242 243 244 246 246 247 248 250 251 254 256 259 261
255 253 254 253 250 245 242 244 244 244 243 246 247 247 248 247 246 246 245 245 243 241 239 239 239 240 241 241 241 242 242 242 243 244 246 247 247 248 249 251 254 257 260 262
255 252 252 253 254 249 245 246 247 247 247 248 248 247 248 246 245 245 245 244 243 241 239 240 239 240 240 241 242 242 243 242 243 244 246 246 247 248 249 251 254 257 260 262
256 253 251 252 253 252 249 249 251 252 252 251 249 248 248 248 247 245 245 244 243 241 240 240 240 240 240 240 241 242 242 242 242 243 245 246 247 248 250 252 255 258 260 263
258 254 252 253 255 254 253 251 252 253 254 252 252 249 247 246 247 244 244 243 243 241 239 240 241 242 241 240 241 242 243 242 242 243 244 246 248 250 252 253 256 259 261 263
262 258 254 255 256 256 255 254 255 256 255 254 252 250 248 247 245 244 243 243 242 240 238 239 240 241 240 240 240 242 243 244 243 244 246 247 249 252 253 255 256 258 260 263
266 260 257 258 258 258 259 256 256 256 255 255 254 250 249 247 246 245 243 243 242 241 240 240 239 240 240 240 240 242 244 245 246 246 246 248 250 253 254 256 257 258 260 262
266 262 261 259 257 259 260 259 257 256 255 254 253 251 248 246 245 244 243 242 241 241 241 240 239 240 240 241 241 242 244 245 247 248 249 250 252 253 255 256 258 259 261 262
267 263 261 261 260 259 259 260 260 259 256 254 254 254 251 247 246 245 243 241 240 240 241 241 240 240 240 241 242 242 243 245 247 249 251 252 253 253 255 256 258 259 261 263
267 265 263 262 263 262 262 262 261 258 256 256 255 254 251 249 247 247 244 242 242 242 242 242 240 239 239 241 242 243 244 246 249 251 252 253 254 255 255 256 258 260 262 263
Height
5599 5604 5609 5615 5621 5627 5631 5635 5639 5643 5647 5652 5657 5662 5667 5672 5676 5681 5686 5691 5697 5702 5708 5713 5717 5721 5726 5731 5735 5739 5743 5747 5751 5755 5758 5761 5764 5767 5770 5772 5773 5775 5777 5778
5593 5598 5605 5610 5614 5618 5622 5626 5631 5636 5640 5644 5648 5653 5658 5663 5668 5673 5678 5683 5689 5694 5700 5705 5709 5714 5719 5723 5728 5732 5736 5740 5744 5747 5750 5754 5756 5759 5762 5764 5766 5768 5769 5771
5587 5595 5598 5601 5606 5610 5615 5619 5624 5628 5632 5636 5640 5644 5649 5655 5660 5665 5670 5675 5681 5686 5692 5697 5702 5707 5711 5716 5720 5724 5728 5732 5736 5739 5743 5746 5749 5751 5754 5757 5759 5760 5762 5764
5582 5586 5590 5594 5599 5603 5608 5614 5617 5620 5624 5627 5632 5635 5642 5647 5651 5657 5662 5668 5674 5679 5684 5689 5694 5699 5704 5708 5712 5716 5720 5724 5728 5731 5735 5738 5741 5744 5747 5749 5751 5753 5755 5757
5577 5581 5584 5588 5594 5598 5603 5607 5611 5614 5617 5621 5624 5628 5634 5638 5644 5650 5655 5661 5666 5671 5676 5682 5687 5691 5696 5700 5704 5708 5712 5716 5720 5724 5727 5730 5733 5736 5739 5741 5744 5746 5748 5749
5574 5577 5580 5584 5589 5592 5597 5601 5605 5607 5609 5613 5618 5622 5626 5631 5638 5643 5648 5653 5658 5663 5668 5673 5678 5683 5687 5692 5696 5700 5704 5708 5712 5716 5719 5722 5725 5728 5731 5733 5736 5738 5740 5742
5569 5572 5575 5579 5583 5587 5590 5595 5598 5599 5601 5606 5612 5615 5620 5625 5631 5636 5641 5645 5650 5656 5660 5665 5670 5675 5680 5684 5688 5692 5696 5700 5704 5707 5710 5714 5717 5720 5723 5726 5728 5731 5733 5734
5564 5568 5570 5574 5577 5581 5585 5589 5592 5595 5597 5601 5605 5608 5614 5619 5623 5628 5633 5638 5642 5648 5653 5657 5662 5667 5671 5676 5680 5684 5688 5692 5696 5699 5702 5706 5709 5712 5715 5718 5720 5723 5725 5726
5560 5564 5567 5570 5573 5577 5579 5583 5587 5590 5592 5596 5598 5602 5607 5611 5616 5620 5625 5630 5635 5640 5645 5649 5654 5658 5663 5667 5672 5676 5680 5684 5688 5691 5694 5698 5701 5704 5707 5710 5712 5714 5716 5718
5556 5560 5563 5565 5568 5572 5576 5579 5582 5584 5587 5589 5593 5596 5601 5605 5609 5613 5618 5622 5627 5632 5637 5641 5645 5650 5654 5659 5663 5667 5671 5675 5679 5683 5686 5690 5693 5696 5698 5701 5704 5706 5708 5710
5553 5555 5558 5561 5563 5566 5570 5573 5576 5579 5582 5585 5587 5593 5595 5598 5603 5607 5611 5615 5619 5624 5629 5633 5637 5642 5646 5650 5654 5659 5663 5667 5671 5675 5678 5681 5685 5688 5690 5693 5695 5698 5700 5701
5549 5551 5553 5557 5559 5562 5565 5568 5572 5575 5578 5580 5583 5589 5589 5593 5596 5600 5604 5607 5611 5616 5620 5625 5629 5633 5637 5642 5646 5650 5655 5659 5662 5666 5669 5673 5676 5679 5681 5684 5686 5689 5691 5693
5545 5547 5549 5551 5555 5557 5559 5563 5566 5569 5572 5574 5577 5583 5583 5586 5589 5593 5596 5600 5603 5608 5612 5616 5621 5625 5629 5633 5638 5642 5646 5650 5653 5657 5660 5664 5667 5670 5673 5675 5677 5680 5682 5684
5541 5543 5546 5548 5549 5551 5555 5558 5561 5563 5566 5569 5572 5576 5578 5580 5582 5585 5588 5592 5596 5600 5604 5608 5613 5617 5621 5625 5629 5633 5637 5641 5644 5648 5651 5655 5658 5661 5663 5666 5668 5671 5673 5674
5536 5538 5540 5542 5545 5547 5550 5553 5555 5558 5561 5564 5567 5569 5572 5574 5576 5579 5582 5585 5589 5592 5597 5601 5605 5608 5612 5616 5620 5624 5627 5631 5635 5639 5642 5646 5649 5651 5654 5657 5659 5661 5664 5665
5532 5534 5535 5538 5540 5542 5544 5547 5549 5552 5555 5558 5560 5563 5565 5567 5569 5572 5575 5578 5581 5585 5589 5593 5596 5600 5603 5607 5611 5615 5618 5622 5626 5630 5633 5636 5639 5642 5645 5648 5650 5652 5654 5656
5528 5529 5531 5533 5535 5536 5540 5543 5545 5547 5550 5552 5554 5558 5559 5561 5563 5565 5568 5571 5574 5578 5581 5585 5588 5592 5595 5598 5602 5606 5609 5613 5617 5621 5624 5627 5630 5633 5636 5639 5641 5643 5645 5647
5524 5525 5526 5528 5530 5532 5538 5538 5540 5542 5544 5546 5548 5550 5552 5554 5557 5558 5561 5564 5567 5570 5574 5577 5580 5584 5587 5590 5594 5597 5601 5604 5608 5611 5615 5618 5621 5624 5626 5629 5632 5634 5635 5637
5520 5521 5522 5523 5524 5527 5531 5532 5534 5536 5538 5540 5541 5543 5545 5547 5550 5552 5554 5557 5559 5562 5566 5569 5572 5576 5579 5582 5585 5589 5592 5595 5599 5603 5606 5609 5612 5614 5617 5620 5622 5624 5626 5627
5516 5517 5518 5519 5520 5522 5526 5527 5528 5530 5532 5534 5535 5537 5538 5540 5543 5546 5547 5549 5552 5555 5558 5561 5564 5567 5571 5574 5577 5580 5583 5587 5590 5594 5597 5600 5603 5605 5608 5610 5613 5614 5616 5618
5511 5512 5513 5514 5515 5517 5520 5521 5522 5525 5527 5528 5528 5530 5532 5534 5536 5538 5540 5542 5545 5547 5550 5553 5556 5559 5562 5565 5569 5572 5575 5578 5582 5585 5588 5591 5594 5596 5599 5601 5603 5605 5607 5608
5507 5508 5509 5509 5511 5515 5514 5515 5517 5519 5519 5520 5522 5523 5525 5527 5529 5531 5533 5535 5537 5540 5543 5546 5549 5551 5554 5557 5561 5564 5567 5570 5573 5577 5580 5582 5585 5587 5589 5591 5593 5596 5597 5599
5504 5505 5504 5506 5508 5508 5508 5509 5511 5512 5513 5514 5515 5517 5519 5520 5522 5524 5526 5528 5530 5533 5535 5538 5541 5544 5546 5549 5553 5556 5559 5562 5565 5568 5571 5574 5576 5578 5581 5583 5585 5586 5588 5590
5500 5500 5500 5500 5501 5502 5503 5503 5504 5505 5506 5507 5509 5510 5512 5514 5515 5517 5518 5520 5523 5525 5528 5530 5533 5536 5539 5542 5545 5548 5551 5554 5557 5560 5563 5565 5568 5570 5572 5574 5576 5577 5579 5580
5495 5495 5495 5496 5496 5497 5497 5498 5498 5499 5500 5501 5502 5503 5505 5507 5508 5510 5511 5513 5516 5518 5520 5523 5526 5528 5531 5534 5537 5540 5543 5546 5549 5552 5554 5557 5559 5561 5563 5565 5567 5568 5570 5571
5490 5490 5490 5491 5491 5492 5492 5492 5492 5493 5494 5495 5496 5497 5498 5500 5501 5503 5505 5507 5509 5511 5513 5515 5518 5521 5524 5527 5530 5533 5536 5539 5542 5544 5546 5549 5551 5553 5555 5556 5558 5559 5561 5562